contact:dominique.lefevre@mio.osupytheas.fr, maurice.libes@osupytheas.fr, didier.mallarino@osupytheas.fr
Project:EMSO http://www.emso-fr.org/EMSO-France
Depth: 2436.0 m
Title:EMSO Ligure Ouest : Data MII capteur MICROCAT
DateTime_Computer,Latitude,Longitude,Temperature,Conductivity,Pressure,DateTime_Instrument
DateTime_Computer,Latitude,Longitude,degC,S m-1,dbar,DateTime_Instrument
2020-02-27T00:02:31Z,42.805,6.029,13.2974,4.59988,2469.923,2020-2-27T02:03:07Z
2020-02-27T00:05:34Z,42.805,6.029,13.2981,4.59981,2469.914,2020-2-27T02:06:10Z
2020-02-27T00:08:37Z,42.805,6.029,13.2980,4.59988,2469.96,2020-2-27T02:09:13Z
2020-02-27T00:11:40Z,42.805,6.029,13.2975,4.59983,2469.923,2020-2-27T02:12:16Z
2020-02-27T00:14:44Z,42.805,6.029,13.2981,4.59988,2469.923,2020-2-27T02:15:20Z
2020-02-27T00:17:47Z,42.805,6.029,13.2975,4.59989,2469.947,2020-2-27T02:18:23Z
2020-02-27T00:20:50Z,42.805,6.029,13.2976,4.59987,2469.914,2020-2-27T02:21:26Z
2020-02-27T00:23:53Z,42.805,6.029,13.2977,4.59981,2469.914,2020-2-27T02:24:29Z
2020-02-27T00:26:57Z,42.805,6.029,13.2977,4.60008,2469.96,2020-2-27T02:27:32Z
2020-02-27T00:30:00Z,42.805,6.029,13.2979,4.59988,2469.923,2020-2-27T02:30:36Z
2020-02-27T00:33:03Z,42.805,6.029,13.2979,4.59985,2469.9,2020-2-27T02:33:39Z
2020-02-27T00:36:06Z,42.805,6.029,13.2975,4.60001,2469.89,2020-2-27T02:36:42Z
2020-02-27T00:39:09Z,42.805,6.029,13.2975,4.59983,2469.937,2020-2-27T02:39:45Z
2020-02-27T00:42:13Z,42.805,6.029,13.2984,4.59991,2469.937,2020-2-27T02:42:48Z
2020-02-27T00:45:16Z,42.805,6.029,13.2979,4.59999,2469.914,2020-2-27T02:45:52Z
2020-02-27T00:48:19Z,42.805,6.029,13.2979,4.59988,2469.876,2020-2-27T02:48:55Z
2020-02-27T00:51:22Z,42.805,6.029,13.2970,4.59986,2469.923,2020-2-27T02:51:58Z
2020-02-27T00:54:25Z,42.805,6.029,13.2975,4.59980,2469.89,2020-2-27T02:55:01Z
2020-02-27T00:57:28Z,42.805,6.029,13.2979,4.59995,2469.876,2020-2-27T02:58:04Z
2020-02-27T01:00:32Z,42.805,6.029,13.2985,4.59991,2469.914,2020-2-27T03:01:07Z
2020-02-27T01:03:35Z,42.805,6.029,13.2977,4.59984,2469.9,2020-2-27T03:04:11Z
2020-02-27T01:06:38Z,42.805,6.029,13.2979,4.59982,2469.914,2020-2-27T03:07:14Z
2020-02-27T01:09:41Z,42.805,6.029,13.2983,4.59986,2469.876,2020-2-27T03:10:17Z
2020-02-27T01:12:45Z,42.805,6.029,13.2986,4.60006,2469.89,2020-2-27T03:13:20Z
2020-02-27T01:15:48Z,42.805,6.029,13.2974,4.59982,2469.9,2020-2-27T03:16:23Z
2020-02-27T01:18:51Z,42.805,6.029,13.2981,4.59994,2469.853,2020-2-27T03:19:27Z
2020-02-27T01:21:54Z,42.805,6.029,13.2979,4.59994,2469.89,2020-2-27T03:22:30Z
2020-02-27T01:24:57Z,42.805,6.029,13.2979,4.60006,2469.9,2020-2-27T03:25:33Z
2020-02-27T01:28:01Z,42.805,6.029,13.2984,4.59992,2469.876,2020-2-27T03:28:36Z
2020-02-27T01:31:04Z,42.805,6.029,13.2980,4.59985,2469.876,2020-2-27T03:31:40Z
2020-02-27T01:34:07Z,42.805,6.029,13.2978,4.59991,2469.89,2020-2-27T03:34:43Z
2020-02-27T01:37:10Z,42.805,6.029,13.2976,4.59986,2469.853,2020-2-27T03:37:46Z
2020-02-27T01:40:13Z,42.805,6.029,13.2973,4.59983,2469.876,2020-2-27T03:40:49Z
2020-02-27T01:43:17Z,42.805,6.029,13.2985,4.59986,2469.914,2020-2-27T03:43:52Z
2020-02-27T01:46:20Z,42.805,6.029,13.2985,4.60001,2469.867,2020-2-27T03:46:56Z
2020-02-27T01:49:23Z,42.805,6.029,13.2979,4.59993,2469.867,2020-2-27T03:49:59Z
2020-02-27T01:52:26Z,42.805,6.029,13.2986,4.59998,2469.853,2020-2-27T03:53:02Z
2020-02-27T01:55:29Z,42.805,6.029,13.2985,4.60001,2469.89,2020-2-27T03:56:05Z
2020-02-27T01:58:33Z,42.805,6.029,13.2988,4.60010,2469.876,2020-2-27T03:59:08Z
2020-02-27T02:01:36Z,42.805,6.029,13.2986,4.59981,2469.876,2020-2-27T04:02:12Z
2020-02-27T02:04:39Z,42.805,6.029,13.2975,4.59982,2469.853,2020-2-27T04:05:15Z
2020-02-27T02:07:42Z,42.805,6.029,13.2972,4.59984,2469.83,2020-2-27T04:08:18Z
2020-02-27T02:10:45Z,42.805,6.029,13.2974,4.59985,2469.844,2020-2-27T04:11:21Z
2020-02-27T02:13:49Z,42.805,6.029,13.2974,4.60009,2469.853,2020-2-27T04:14:24Z
2020-02-27T02:16:52Z,42.805,6.029,13.2979,4.60004,2469.89,2020-2-27T04:17:28Z
2020-02-27T02:19:55Z,42.805,6.029,13.2989,4.59992,2469.839,2020-2-27T04:20:31Z
2020-02-27T02:22:58Z,42.805,6.029,13.2977,4.59986,2469.89,2020-2-27T04:23:34Z
2020-02-27T02:26:01Z,42.805,6.029,13.2977,4.59981,2469.844,2020-2-27T04:26:37Z
2020-02-27T02:29:05Z,42.805,6.029,13.2982,4.59991,2469.867,2020-2-27T04:29:40Z
2020-02-27T02:32:08Z,42.805,6.029,13.2976,4.59983,2469.876,2020-2-27T04:32:44Z
2020-02-27T02:35:11Z,42.805,6.029,13.2984,4.59997,2469.853,2020-2-27T04:35:47Z
2020-02-27T02:38:14Z,42.805,6.029,13.2979,4.59991,2469.867,2020-2-27T04:38:50Z
2020-02-27T02:41:18Z,42.805,6.029,13.2976,4.59980,2469.914,2020-2-27T04:41:53Z
2020-02-27T02:44:21Z,42.805,6.029,13.2980,4.59998,2469.853,2020-2-27T04:44:57Z
2020-02-27T02:47:24Z,42.805,6.029,13.2982,4.60000,2469.876,2020-2-27T04:48:00Z
2020-02-27T02:50:27Z,42.805,6.029,13.2979,4.59996,2469.83,2020-2-27T04:51:03Z
2020-02-27T02:53:30Z,42.805,6.029,13.2991,4.60003,2469.83,2020-2-27T04:54:06Z
2020-02-27T02:56:33Z,42.805,6.029,13.2990,4.60009,2469.867,2020-2-27T04:57:09Z
2020-02-27T02:59:37Z,42.805,6.029,13.2980,4.60001,2469.853,2020-2-27T05:00:12Z
2020-02-27T03:02:40Z,42.805,6.029,13.2990,4.59996,2469.853,2020-2-27T05:03:16Z
2020-02-27T03:05:43Z,42.805,6.029,13.2988,4.60014,2469.867,2020-2-27T05:06:19Z
2020-02-27T03:08:46Z,42.805,6.029,13.2983,4.60002,2469.853,2020-2-27T05:09:22Z
2020-02-27T03:11:49Z,42.805,6.029,13.2981,4.60008,2469.867,2020-2-27T05:12:25Z
2020-02-27T03:14:53Z,42.805,6.029,13.2976,4.59983,2469.853,2020-2-27T05:15:28Z
2020-02-27T03:17:56Z,42.805,6.029,13.2973,4.59978,2469.853,2020-2-27T05:18:32Z
2020-02-27T03:20:59Z,42.805,6.029,13.2973,4.59981,2469.853,2020-2-27T05:21:35Z
2020-02-27T03:24:02Z,42.805,6.029,13.2984,4.59995,2469.844,2020-2-27T05:24:38Z
2020-02-27T03:27:05Z,42.805,6.029,13.2973,4.59988,2469.876,2020-2-27T05:27:41Z
2020-02-27T03:30:09Z,42.805,6.029,13.2973,4.59982,2469.806,2020-2-27T05:30:44Z
2020-02-27T03:33:12Z,42.805,6.029,13.2981,4.59982,2469.89,2020-2-27T05:33:48Z
2020-02-27T03:36:15Z,42.805,6.029,13.2976,4.59992,2469.853,2020-2-27T05:36:51Z
2020-02-27T03:39:18Z,42.805,6.029,13.2974,4.59984,2469.83,2020-2-27T05:39:54Z
2020-02-27T03:42:21Z,42.805,6.029,13.2980,4.59997,2469.83,2020-2-27T05:42:57Z
2020-02-27T03:45:25Z,42.805,6.029,13.2970,4.59978,2469.853,2020-2-27T05:46:00Z
2020-02-27T03:48:28Z,42.805,6.029,13.2977,4.59983,2469.853,2020-2-27T05:49:04Z
2020-02-27T03:51:31Z,42.805,6.029,13.2974,4.59981,2469.853,2020-2-27T05:52:07Z
2020-02-27T03:54:34Z,42.805,6.029,13.2985,4.59990,2469.853,2020-2-27T05:55:10Z
2020-02-27T03:57:37Z,42.805,6.029,13.2979,4.59986,2469.853,2020-2-27T05:58:13Z
2020-02-27T04:00:41Z,42.805,6.029,13.2991,4.59991,2469.83,2020-2-27T06:01:16Z
2020-02-27T04:03:44Z,42.805,6.029,13.2993,4.60001,2469.853,2020-2-27T06:04:20Z
2020-02-27T04:06:47Z,42.805,6.029,13.2982,4.60009,2469.867,2020-2-27T06:07:23Z
2020-02-27T04:09:50Z,42.805,6.029,13.2994,4.60016,2469.867,2020-2-27T06:10:26Z
2020-02-27T04:12:53Z,42.805,6.029,13.2987,4.60017,2469.853,2020-2-27T06:13:29Z
2020-02-27T04:15:56Z,42.805,6.029,13.2987,4.60016,2469.844,2020-2-27T06:16:32Z
2020-02-27T04:19:00Z,42.805,6.029,13.2996,4.60017,2469.904,2020-2-27T06:19:35Z
2020-02-27T04:22:03Z,42.805,6.029,13.2979,4.59991,2469.853,2020-2-27T06:22:39Z
2020-02-27T04:25:06Z,42.805,6.029,13.2981,4.59986,2469.867,2020-2-27T06:25:42Z
2020-02-27T04:28:09Z,42.805,6.029,13.2987,4.60016,2469.844,2020-2-27T06:28:45Z
2020-02-27T04:31:13Z,42.805,6.029,13.2998,4.60009,2469.853,2020-2-27T06:31:49Z
2020-02-27T04:34:16Z,42.805,6.029,13.2983,4.60011,2469.853,2020-2-27T06:34:52Z
2020-02-27T04:37:20Z,42.805,6.029,13.2980,4.59992,2469.876,2020-2-27T06:37:55Z
2020-02-27T04:40:23Z,42.805,6.029,13.2990,4.60003,2469.853,2020-2-27T06:40:59Z
2020-02-27T04:43:26Z,42.805,6.029,13.2995,4.60009,2469.876,2020-2-27T06:44:02Z
2020-02-27T04:46:29Z,42.805,6.029,13.2980,4.60011,2469.89,2020-2-27T06:47:05Z
2020-02-27T04:49:32Z,42.805,6.029,13.2973,4.59999,2469.853,2020-2-27T06:50:08Z
2020-02-27T04:52:36Z,42.805,6.029,13.2982,4.60004,2469.89,2020-2-27T06:53:11Z
2020-02-27T04:55:39Z,42.805,6.029,13.2976,4.60021,2469.89,2020-2-27T06:56:15Z
2020-02-27T04:58:42Z,42.805,6.029,13.2991,4.60024,2469.89,2020-2-27T06:59:18Z
2020-02-27T05:01:45Z,42.805,6.029,13.2989,4.60020,2469.853,2020-2-27T07:02:21Z
2020-02-27T05:04:48Z,42.805,6.029,13.2998,4.60011,2469.853,2020-2-27T07:05:24Z
2020-02-27T05:07:52Z,42.805,6.029,13.2999,4.60020,2469.853,2020-2-27T07:08:27Z
2020-02-27T05:10:55Z,42.805,6.029,13.2985,4.60010,2469.853,2020-2-27T07:11:31Z
2020-02-27T05:13:58Z,42.805,6.029,13.2983,4.60011,2469.876,2020-2-27T07:14:34Z
2020-02-27T05:17:01Z,42.805,6.029,13.2999,4.60006,2469.853,2020-2-27T07:17:37Z
2020-02-27T05:20:04Z,42.805,6.029,13.2990,4.60013,2469.876,2020-2-27T07:20:40Z
2020-02-27T05:23:07Z,42.805,6.029,13.2986,4.60019,2469.89,2020-2-27T07:23:43Z
2020-02-27T05:26:11Z,42.805,6.029,13.2989,4.60026,2469.9,2020-2-27T07:26:47Z
2020-02-27T05:29:14Z,42.805,6.029,13.2999,4.60015,2469.927,2020-2-27T07:29:50Z
2020-02-27T05:32:17Z,42.805,6.029,13.2990,4.60022,2469.863,2020-2-27T07:32:53Z
2020-02-27T05:35:20Z,42.805,6.029,13.2991,4.60025,2469.89,2020-2-27T07:35:56Z
2020-02-27T05:38:24Z,42.805,6.029,13.3000,4.60001,2469.914,2020-2-27T07:38:59Z
2020-02-27T05:41:27Z,42.805,6.029,13.2988,4.60017,2469.914,2020-2-27T07:42:03Z
2020-02-27T05:44:30Z,42.805,6.029,13.2993,4.60016,2469.923,2020-2-27T07:45:06Z
2020-02-27T05:47:33Z,42.805,6.029,13.2999,4.60019,2469.937,2020-2-27T07:48:09Z
2020-02-27T05:50:36Z,42.805,6.029,13.2991,4.60009,2469.876,2020-2-27T07:51:12Z
2020-02-27T05:53:40Z,42.805,6.029,13.2981,4.60005,2469.923,2020-2-27T07:54:15Z
2020-02-27T05:56:43Z,42.805,6.029,13.2991,4.60009,2469.914,2020-2-27T07:57:19Z
2020-02-27T05:59:46Z,42.805,6.029,13.2998,4.60021,2469.923,2020-2-27T08:00:22Z
2020-02-27T06:02:49Z,42.805,6.029,13.2981,4.60009,2469.89,2020-2-27T08:03:25Z
2020-02-27T06:05:52Z,42.805,6.029,13.2988,4.60019,2469.914,2020-2-27T08:06:28Z
2020-02-27T06:08:55Z,42.805,6.029,13.2992,4.60029,2469.914,2020-2-27T08:09:31Z
2020-02-27T06:11:59Z,42.805,6.029,13.2991,4.60020,2469.923,2020-2-27T08:12:34Z
2020-02-27T06:15:02Z,42.805,6.029,13.2986,4.59999,2469.923,2020-2-27T08:15:38Z
2020-02-27T06:18:05Z,42.805,6.029,13.2992,4.60017,2469.923,2020-2-27T08:18:41Z
2020-02-27T06:21:08Z,42.805,6.029,13.2992,4.60014,2469.937,2020-2-27T08:21:44Z
2020-02-27T06:24:11Z,42.805,6.029,13.2991,4.60022,2469.937,2020-2-27T08:24:47Z
2020-02-27T06:27:15Z,42.805,6.029,13.2996,4.59999,2469.923,2020-2-27T08:27:50Z
2020-02-27T06:30:18Z,42.805,6.029,13.2993,4.60016,2469.937,2020-2-27T08:30:54Z
2020-02-27T06:33:21Z,42.805,6.029,13.2991,4.60019,2469.947,2020-2-27T08:33:57Z
2020-02-27T06:36:24Z,42.805,6.029,13.2993,4.60027,2469.923,2020-2-27T08:37:00Z
2020-02-27T06:39:28Z,42.805,6.029,13.2992,4.60031,2469.947,2020-2-27T08:40:03Z
2020-02-27T06:42:31Z,42.805,6.029,13.2993,4.60028,2469.96,2020-2-27T08:43:07Z
2020-02-27T06:45:34Z,42.805,6.029,13.2986,4.60034,2469.947,2020-2-27T08:46:10Z
2020-02-27T06:48:37Z,42.805,6.029,13.2990,4.60005,2470.017,2020-2-27T08:49:13Z
2020-02-27T06:51:40Z,42.805,6.029,13.2990,4.60004,2470.007,2020-2-27T08:52:16Z
2020-02-27T06:54:44Z,42.805,6.029,13.2982,4.59993,2469.914,2020-2-27T08:55:19Z
2020-02-27T06:57:47Z,42.805,6.029,13.2979,4.60013,2469.97,2020-2-27T08:58:23Z
2020-02-27T07:00:50Z,42.805,6.029,13.2990,4.60025,2469.97,2020-2-27T09:01:26Z
2020-02-27T07:03:53Z,42.805,6.029,13.2997,4.60021,2469.97,2020-2-27T09:04:29Z
2020-02-27T07:06:56Z,42.805,6.029,13.2990,4.60014,2469.984,2020-2-27T09:07:32Z
2020-02-27T07:10:00Z,42.805,6.029,13.3000,4.60013,2469.97,2020-2-27T09:10:35Z
2020-02-27T07:13:03Z,42.805,6.029,13.2980,4.59995,2469.97,2020-2-27T09:13:39Z
2020-02-27T07:16:06Z,42.805,6.029,13.2994,4.59995,2470.007,2020-2-27T09:16:42Z
2020-02-27T07:19:09Z,42.805,6.029,13.2998,4.60028,2469.993,2020-2-27T09:19:45Z
2020-02-27T07:22:12Z,42.805,6.029,13.2982,4.60023,2469.993,2020-2-27T09:22:48Z
2020-02-27T07:25:16Z,42.805,6.029,13.2980,4.60021,2470.017,2020-2-27T09:25:51Z
2020-02-27T07:28:19Z,42.805,6.029,13.2998,4.60027,2470.03,2020-2-27T09:28:55Z
2020-02-27T07:31:22Z,42.805,6.029,13.2992,4.60020,2470.017,2020-2-27T09:31:58Z
2020-02-27T07:34:25Z,42.805,6.029,13.3003,4.60029,2470.017,2020-2-27T09:35:01Z
2020-02-27T07:37:28Z,42.805,6.029,13.2988,4.60031,2469.993,2020-2-27T09:38:04Z
2020-02-27T07:40:32Z,42.805,6.029,13.2989,4.60001,2469.993,2020-2-27T09:41:08Z
2020-02-27T07:43:35Z,42.805,6.029,13.2985,4.60022,2470.053,2020-2-27T09:44:11Z
2020-02-27T07:46:38Z,42.805,6.029,13.2996,4.60015,2470.007,2020-2-27T09:47:14Z
2020-02-27T07:49:41Z,42.805,6.029,13.3000,4.60019,2469.993,2020-2-27T09:50:17Z
2020-02-27T07:52:44Z,42.805,6.029,13.3000,4.60022,2470.04,2020-2-27T09:53:20Z
2020-02-27T07:55:48Z,42.805,6.029,13.3000,4.60027,2470.063,2020-2-27T09:56:24Z
2020-02-27T07:58:51Z,42.805,6.029,13.3001,4.60004,2470.017,2020-2-27T09:59:27Z
2020-02-27T08:01:55Z,42.805,6.029,13.2986,4.60022,2470.017,2020-2-27T10:02:30Z
2020-02-27T08:04:58Z,42.805,6.029,13.2983,4.60033,2470.03,2020-2-27T10:05:34Z
2020-02-27T08:08:01Z,42.805,6.029,13.3000,4.60019,2470.017,2020-2-27T10:08:37Z
2020-02-27T08:11:04Z,42.805,6.029,13.2997,4.60002,2470.04,2020-2-27T10:11:40Z
2020-02-27T08:14:07Z,42.805,6.029,13.2991,4.60000,2470.053,2020-2-27T10:14:43Z
2020-02-27T08:17:11Z,42.805,6.029,13.2989,4.60017,2469.993,2020-2-27T10:17:46Z
2020-02-27T08:20:14Z,42.805,6.029,13.2988,4.60039,2470.017,2020-2-27T10:20:50Z
2020-02-27T08:23:17Z,42.805,6.029,13.3000,4.60023,2470.053,2020-2-27T10:23:53Z
2020-02-27T08:26:20Z,42.805,6.029,13.2989,4.60012,2470.053,2020-2-27T10:26:56Z
2020-02-27T08:29:24Z,42.805,6.029,13.2991,4.60026,2470.063,2020-2-27T10:29:59Z
2020-02-27T08:32:27Z,42.805,6.029,13.3004,4.60027,2470.03,2020-2-27T10:33:03Z
2020-02-27T08:35:30Z,42.805,6.029,13.3004,4.60019,2470.04,2020-2-27T10:36:06Z
2020-02-27T08:38:33Z,42.805,6.029,13.3008,4.60029,2470.063,2020-2-27T10:39:09Z
2020-02-27T08:41:36Z,42.805,6.029,13.2987,4.60019,2470.063,2020-2-27T10:42:12Z
2020-02-27T08:44:40Z,42.805,6.029,13.3006,4.60021,2470.04,2020-2-27T10:45:15Z
2020-02-27T08:47:43Z,42.805,6.029,13.2983,4.60016,2470.077,2020-2-27T10:48:19Z
2020-02-27T08:50:46Z,42.805,6.029,13.2998,4.60036,2470.04,2020-2-27T10:51:22Z
2020-02-27T08:53:49Z,42.805,6.029,13.2981,4.60019,2470.063,2020-2-27T10:54:25Z
2020-02-27T08:56:53Z,42.805,6.029,13.2997,4.60016,2470.04,2020-2-27T10:57:28Z
2020-02-27T08:59:56Z,42.805,6.029,13.2996,4.60032,2470.063,2020-2-27T11:00:32Z
2020-02-27T09:02:59Z,42.805,6.029,13.3000,4.60018,2470.087,2020-2-27T11:03:35Z
2020-02-27T09:06:02Z,42.805,6.029,13.3006,4.60008,2470.053,2020-2-27T11:06:38Z
2020-02-27T09:09:05Z,42.805,6.029,13.2991,4.60009,2470.063,2020-2-27T11:09:41Z
2020-02-27T09:12:09Z,42.805,6.029,13.2991,4.60012,2470.077,2020-2-27T11:12:44Z
2020-02-27T09:15:12Z,42.805,6.029,13.2981,4.60024,2470.087,2020-2-27T11:15:48Z
2020-02-27T09:18:15Z,42.805,6.029,13.3012,4.60021,2470.063,2020-2-27T11:18:51Z
2020-02-27T09:21:18Z,42.805,6.029,13.2986,4.60034,2470.1,2020-2-27T11:21:54Z
2020-02-27T09:24:21Z,42.805,6.029,13.2993,4.60044,2470.077,2020-2-27T11:24:57Z
2020-02-27T09:27:25Z,42.805,6.029,13.2985,4.59998,2470.1,2020-2-27T11:28:01Z
2020-02-27T09:30:28Z,42.805,6.029,13.2998,4.60006,2470.053,2020-2-27T11:31:04Z
2020-02-27T09:33:31Z,42.805,6.029,13.2998,4.60024,2470.063,2020-2-27T11:34:07Z
2020-02-27T09:36:34Z,42.805,6.029,13.2992,4.60033,2470.124,2020-2-27T11:37:10Z
2020-02-27T09:39:38Z,42.805,6.029,13.2993,4.60014,2470.04,2020-2-27T11:40:13Z
2020-02-27T09:42:41Z,42.805,6.029,13.2990,4.60014,2470.11,2020-2-27T11:43:17Z
2020-02-27T09:45:44Z,42.805,6.029,13.2984,4.60011,2470.04,2020-2-27T11:46:20Z
2020-02-27T09:48:47Z,42.805,6.029,13.3002,4.59999,2470.063,2020-2-27T11:49:23Z
2020-02-27T09:51:50Z,42.805,6.029,13.3008,4.60031,2470.04,2020-2-27T11:52:26Z
2020-02-27T09:54:54Z,42.805,6.029,13.3011,4.60026,2470.063,2020-2-27T11:55:29Z
2020-02-27T09:57:57Z,42.805,6.029,13.3000,4.60017,2470.017,2020-2-27T11:58:33Z
2020-02-27T10:01:00Z,42.805,6.029,13.2979,4.59982,2470.053,2020-2-27T12:01:36Z
2020-02-27T10:04:03Z,42.805,6.029,13.2979,4.60006,2470.053,2020-2-27T12:04:39Z
2020-02-27T10:07:07Z,42.805,6.029,13.3004,4.60005,2470.077,2020-2-27T12:07:43Z
2020-02-27T10:10:10Z,42.805,6.029,13.3008,4.60028,2470.087,2020-2-27T12:10:46Z
2020-02-27T10:13:13Z,42.805,6.029,13.3006,4.60021,2470.1,2020-2-27T12:13:49Z
2020-02-27T10:16:16Z,42.805,6.029,13.3006,4.60031,2470.053,2020-2-27T12:16:52Z
2020-02-27T10:19:20Z,42.805,6.029,13.3002,4.60031,2470.053,2020-2-27T12:19:55Z
2020-02-27T10:22:23Z,42.805,6.029,13.2999,4.60029,2470.04,2020-2-27T12:22:59Z
2020-02-27T10:25:26Z,42.805,6.029,13.2994,4.60016,2470.063,2020-2-27T12:26:02Z
2020-02-27T10:28:29Z,42.805,6.029,13.2993,4.60041,2470.077,2020-2-27T12:29:05Z
2020-02-27T10:31:32Z,42.805,6.029,13.2996,4.60021,2470.053,2020-2-27T12:32:08Z
2020-02-27T10:34:36Z,42.805,6.029,13.2996,4.60026,2470.1,2020-2-27T12:35:11Z
2020-02-27T10:37:39Z,42.805,6.029,13.3014,4.60033,2470.04,2020-2-27T12:38:15Z
2020-02-27T10:40:42Z,42.805,6.029,13.3004,4.60029,2470.017,2020-2-27T12:41:18Z
2020-02-27T10:43:45Z,42.805,6.029,13.3009,4.60031,2470.04,2020-2-27T12:44:21Z
2020-02-27T10:46:48Z,42.805,6.029,13.2987,4.60029,2470.04,2020-2-27T12:47:24Z
2020-02-27T10:49:52Z,42.805,6.029,13.3009,4.60039,2470.077,2020-2-27T12:50:27Z
2020-02-27T10:52:55Z,42.805,6.029,13.3006,4.60000,2470.04,2020-2-27T12:53:31Z
2020-02-27T10:55:58Z,42.805,6.029,13.2987,4.60026,2470.03,2020-2-27T12:56:34Z
2020-02-27T10:59:01Z,42.805,6.029,13.3000,4.60019,2470.04,2020-2-27T12:59:37Z
2020-02-27T11:02:04Z,42.805,6.029,13.2980,4.60025,2470.04,2020-2-27T13:02:40Z
2020-02-27T11:05:07Z,42.805,6.029,13.3003,4.60026,2470.053,2020-2-27T13:05:43Z
2020-02-27T11:08:11Z,42.805,6.029,13.3009,4.60015,2470.003,2020-2-27T13:08:46Z
2020-02-27T11:11:14Z,42.805,6.029,13.2975,4.60010,2470.03,2020-2-27T13:11:50Z
2020-02-27T11:14:17Z,42.805,6.029,13.2989,4.60029,2470.04,2020-2-27T13:14:53Z
2020-02-27T11:17:20Z,42.805,6.029,13.3003,4.60031,2470.053,2020-2-27T13:17:56Z
2020-02-27T11:20:23Z,42.805,6.029,13.2978,4.60023,2470.03,2020-2-27T13:20:59Z
2020-02-27T11:23:27Z,42.805,6.029,13.2998,4.60044,2470.04,2020-2-27T13:24:03Z
2020-02-27T11:26:30Z,42.805,6.029,13.2996,4.60039,2470.077,2020-2-27T13:27:06Z
2020-02-27T11:29:33Z,42.805,6.029,13.3000,4.60006,2470.03,2020-2-27T13:30:09Z
2020-02-27T11:32:36Z,42.805,6.029,13.2996,4.59989,2470.017,2020-2-27T13:33:12Z
2020-02-27T11:35:39Z,42.805,6.029,13.2986,4.60002,2470.017,2020-2-27T13:36:15Z
2020-02-27T11:38:43Z,42.805,6.029,13.2991,4.60036,2470.017,2020-2-27T13:39:18Z
2020-02-27T11:41:46Z,42.805,6.029,13.2990,4.60016,2470.017,2020-2-27T13:42:22Z
2020-02-27T11:44:49Z,42.805,6.029,13.2993,4.60020,2470.017,2020-2-27T13:45:25Z
2020-02-27T11:47:52Z,42.805,6.029,13.2988,4.60014,2470.017,2020-2-27T13:48:28Z
2020-02-27T11:50:55Z,42.805,6.029,13.2986,4.60017,2470.007,2020-2-27T13:51:31Z
2020-02-27T11:53:59Z,42.805,6.029,13.2991,4.60033,2469.993,2020-2-27T13:54:34Z
2020-02-27T11:57:02Z,42.805,6.029,13.3006,4.60034,2469.984,2020-2-27T13:57:38Z
2020-02-27T12:00:05Z,42.805,6.029,13.3015,4.60029,2470.03,2020-2-27T14:00:41Z
2020-02-27T12:03:08Z,42.805,6.029,13.3004,4.60036,2470.007,2020-2-27T14:03:44Z
2020-02-27T12:06:11Z,42.805,6.029,13.2998,4.60039,2470.03,2020-2-27T14:06:47Z
2020-02-27T12:09:15Z,42.805,6.029,13.2995,4.60046,2469.97,2020-2-27T14:09:50Z
2020-02-27T12:12:18Z,42.805,6.029,13.3000,4.60050,2470.007,2020-2-27T14:12:54Z
2020-02-27T12:15:21Z,42.805,6.029,13.2993,4.60043,2470.007,2020-2-27T14:15:57Z
2020-02-27T12:18:24Z,42.805,6.029,13.2992,4.60052,2470.007,2020-2-27T14:19:00Z
2020-02-27T12:21:27Z,42.805,6.029,13.3003,4.60042,2469.993,2020-2-27T14:22:03Z
2020-02-27T12:24:31Z,42.805,6.029,13.2996,4.60035,2469.993,2020-2-27T14:25:06Z
2020-02-27T12:27:34Z,42.805,6.029,13.3012,4.60027,2469.947,2020-2-27T14:28:10Z
2020-02-27T12:30:37Z,42.805,6.029,13.2990,4.60039,2469.97,2020-2-27T14:31:13Z
2020-02-27T12:33:40Z,42.805,6.029,13.3009,4.60026,2469.993,2020-2-27T14:34:16Z
2020-02-27T12:36:44Z,42.805,6.029,13.2993,4.60015,2469.97,2020-2-27T14:37:19Z
2020-02-27T12:39:47Z,42.805,6.029,13.2983,4.60033,2469.947,2020-2-27T14:40:23Z
2020-02-27T12:42:50Z,42.805,6.029,13.2996,4.60037,2470.007,2020-2-27T14:43:26Z
2020-02-27T12:45:53Z,42.805,6.029,13.3009,4.60032,2469.947,2020-2-27T14:46:29Z
2020-02-27T12:48:56Z,42.805,6.029,13.2996,4.60028,2469.947,2020-2-27T14:49:32Z
2020-02-27T12:52:00Z,42.805,6.029,13.2996,4.60030,2469.947,2020-2-27T14:52:35Z
2020-02-27T12:55:03Z,42.805,6.029,13.2994,4.60014,2469.96,2020-2-27T14:55:39Z
2020-02-27T12:58:06Z,42.805,6.029,13.3000,4.60021,2469.947,2020-2-27T14:58:42Z
2020-02-27T13:01:09Z,42.805,6.029,13.3004,4.60013,2469.947,2020-2-27T15:01:45Z
2020-02-27T13:04:12Z,42.805,6.029,13.2990,4.60021,2469.97,2020-2-27T15:04:48Z
2020-02-27T13:07:16Z,42.805,6.029,13.3001,4.60029,2469.923,2020-2-27T15:07:51Z
2020-02-27T13:10:19Z,42.805,6.029,13.2994,4.60040,2469.947,2020-2-27T15:10:55Z
2020-02-27T13:13:22Z,42.805,6.029,13.2980,4.60008,2469.923,2020-2-27T15:13:58Z
2020-02-27T13:16:25Z,42.805,6.029,13.2990,4.60009,2469.923,2020-2-27T15:17:01Z
2020-02-27T13:19:28Z,42.805,6.029,13.2996,4.60019,2469.9,2020-2-27T15:20:04Z
2020-02-27T13:22:32Z,42.805,6.029,13.2984,4.60029,2469.96,2020-2-27T15:23:07Z
2020-02-27T13:25:35Z,42.805,6.029,13.2995,4.60029,2469.9,2020-2-27T15:26:11Z
2020-02-27T13:28:38Z,42.805,6.029,13.3005,4.60036,2469.947,2020-2-27T15:29:14Z
2020-02-27T13:31:41Z,42.805,6.029,13.3006,4.60011,2469.96,2020-2-27T15:32:17Z
2020-02-27T13:34:45Z,42.805,6.029,13.2997,4.60031,2469.923,2020-2-27T15:35:20Z
2020-02-27T13:37:48Z,42.805,6.029,13.2999,4.60022,2469.96,2020-2-27T15:38:24Z
2020-02-27T13:40:51Z,42.805,6.029,13.2990,4.59986,2469.937,2020-2-27T15:41:27Z
2020-02-27T13:43:54Z,42.805,6.029,13.2992,4.60020,2469.937,2020-2-27T15:44:30Z
2020-02-27T13:46:57Z,42.805,6.029,13.2993,4.60023,2469.9,2020-2-27T15:47:33Z
2020-02-27T13:50:01Z,42.805,6.029,13.2986,4.60028,2469.9,2020-2-27T15:50:37Z
2020-02-27T13:53:04Z,42.805,6.029,13.2995,4.60025,2469.914,2020-2-27T15:53:40Z
2020-02-27T13:56:07Z,42.805,6.029,13.2988,4.60026,2469.937,2020-2-27T15:56:43Z
2020-02-27T13:59:10Z,42.805,6.029,13.2996,4.60011,2469.937,2020-2-27T15:59:46Z
2020-02-27T14:02:14Z,42.805,6.029,13.2996,4.60021,2469.914,2020-2-27T16:02:49Z
2020-02-27T14:05:17Z,42.805,6.029,13.2997,4.60032,2469.937,2020-2-27T16:05:53Z
2020-02-27T14:08:20Z,42.805,6.029,13.3000,4.60014,2469.923,2020-2-27T16:08:56Z
2020-02-27T14:11:23Z,42.805,6.029,13.3001,4.60025,2469.923,2020-2-27T16:11:59Z
2020-02-27T14:14:26Z,42.805,6.029,13.3014,4.60026,2469.937,2020-2-27T16:15:02Z
2020-02-27T14:17:30Z,42.805,6.029,13.3006,4.60031,2469.914,2020-2-27T16:18:05Z
2020-02-27T14:20:33Z,42.805,6.029,13.2996,4.60044,2469.923,2020-2-27T16:21:09Z
2020-02-27T14:23:36Z,42.805,6.029,13.2997,4.60034,2469.947,2020-2-27T16:24:12Z
2020-02-27T14:26:39Z,42.805,6.029,13.3003,4.60016,2469.914,2020-2-27T16:27:15Z
2020-02-27T14:29:43Z,42.805,6.029,13.2998,4.60025,2469.914,2020-2-27T16:30:19Z
2020-02-27T14:32:46Z,42.805,6.029,13.2993,4.60029,2469.923,2020-2-27T16:33:22Z
2020-02-27T14:35:49Z,42.805,6.029,13.3000,4.60016,2469.9,2020-2-27T16:36:25Z
2020-02-27T14:38:52Z,42.805,6.029,13.2978,4.60024,2469.89,2020-2-27T16:39:28Z
2020-02-27T14:41:56Z,42.805,6.029,13.3000,4.60017,2469.914,2020-2-27T16:42:31Z
2020-02-27T14:44:59Z,42.805,6.029,13.2999,4.60041,2469.876,2020-2-27T16:45:35Z
2020-02-27T14:48:02Z,42.805,6.029,13.2996,4.60017,2469.923,2020-2-27T16:48:38Z
2020-02-27T14:51:05Z,42.805,6.029,13.2981,4.59997,2469.923,2020-2-27T16:51:41Z
2020-02-27T14:54:09Z,42.805,6.029,13.2990,4.60025,2469.9,2020-2-27T16:54:44Z
2020-02-27T14:57:12Z,42.805,6.029,13.3006,4.60024,2469.9,2020-2-27T16:57:48Z
2020-02-27T15:00:15Z,42.805,6.029,13.3000,4.60031,2469.876,2020-2-27T17:00:51Z
2020-02-27T15:03:18Z,42.805,6.029,13.3003,4.60019,2469.876,2020-2-27T17:03:54Z
2020-02-27T15:06:21Z,42.805,6.029,13.2996,4.60023,2469.914,2020-2-27T17:06:57Z
2020-02-27T15:09:24Z,42.805,6.029,13.3003,4.60023,2469.876,2020-2-27T17:10:00Z
2020-02-27T15:12:28Z,42.805,6.029,13.2998,4.60021,2469.876,2020-2-27T17:13:04Z
2020-02-27T15:15:31Z,42.805,6.029,13.2983,4.60016,2469.9,2020-2-27T17:16:07Z